Location: Berg
(47.2344°N, 9.5296°E)
Time: 17:40:26
(UTC+00:00)

AAUSAT CUBESAT 2 - Pass Details

Date: 02 December 2021
Orbit: 572 x 586 km, 97.5° (Epoch: 16 January)

Event Time Altitude Azimuth Distance (km) Brightness Sun altitude
Rises 03:41:58 0° 25° (NNE) 2,795 ? -30.9°
Reaches altitude 10° 03:44:30 10° 41° (NE) 1,894 ? -30.5°
Maximum altitude 03:47:45 22° 93° (E) 1,273 ? -29.9°
Drops below altitude 10° 03:50:59 10° 145° (SE) 1,887 ? -29.4°
Sets 03:53:30 0° 161° (SSE) 2,784 ? -29.0°
